CAPE
6 2 549 917 685 543 658 569 381 238 260 292 270 216 175 119 136 175 215 184 83 108 81 53 26 17 11 0 0 0 0 0 0 0 0 0 0 0 0 0 0 0 0
8 5 205 359 391 410 392 288 191 147 117 121 47 52 65 38 28 27 52 102 77 63 35 38 21 18 6 1 0 1 0 0 0 0 0 0 0 0 6 1 0 0 0
6 9 2 1 170 241 142 77 75 65 54 48 45 31 5 2 4 3 3 1 6 39 28 35 9 12 13 1 1 1 0 0 0 0 0 0 2 8 1 0 0 0 0
4 11 8 3 0 23 5 14 12 2 5 3 0 0 0 0 0 0 0 0 1 2 1 8 17 20 13 1 1 1 0 1 0 0 0 0 0 2 22 16 0 1 0
6 7 9 9 9 1 0 1 0 0 0 1 0 0 0 0 0 0 0 0 0 0 0 4 2 5 4 10 1 1 1 1 1 1 1 0 0 0 15 2 1 1 5
4 5 5 1 7 14 8 8 1 1 2 1 0 0 0 1 3 0 0 0 0 0 0 0 3 0 0 0 2 0 0 1 1 1 1 0 0 0 8 0 0 0 0
5 4 4 1 1 4 7 8 11 10 5 5 8 5 8 6 5 3 0 0 0 0 2 0 0 0 1 0 0 0 0 0 0 0 2 0 0 0 0 2 0 0 0
5 5 3 1 1 5 2 4 8 7 8 7 6 6 6 7 5 3 1 4 4 5 5 3 1 1 4 2 1 0 6 4 0 0 0 0 0 0 0 0 0 0 6
3 3 3 3 3 3 5 5 2 1 4 4 4 5 7 6 5 4 2 5 5 7 8 10 6 0 0 8 3 1 6 11 9 20 20 19 13 7 1 0 0 0 2
3 2 1 2 3 3 3 3 2 3 3 1 2 1 3 4 2 5 3 5 7 9 6 5 4 3 2 2 1 3 0 9 8 5 2 0 1 3 1 1 5 1 0
2 3 2 2 1 1 2 1 2 1 2 2 2 0 1 1 2 4 4 5 7 7 9 8 4 3 3 3 3 8 12 2 3 2 2 2 2 2 2 1 0 0 0
0 1 2 2 2 2 2 1 2 1 0 1 1 1 1 1 2 3 3 3 3 5 5 2 2 6 8 5 5 4 2 1 1 1 1 2 2 4 4 4 3 1 0
0 0 0 0 1 1 2 2 2 1 2 3 2 1 1 1 1 0 1 1 2 2 1 3 4 5 5 4 3 1 0 2 3 3 4 2 1 0 0 0 0 0 0
2 1 0 0 0 1 1 0 1 1 1 2 2 2 1 1 1 0 0 0 0 0 0 0 1 2 1 1 1 1 1 1 1 1 0 0 0 0 1 0 0 0 0
0 0 0 0 0 0 0 1 0 0 0 1 1 1 1 0 1 2 2 0 0 1 0 0 0 0 0 0 0 0 0 0 0 0 0 0 0 0 0 0 0 0 0
0 0 0 0 0 0 0 0 0 0 0 0 1 0 0 1 1 2 2 2 2 2 0 0 0 0 0 0 0 0 0 0 0 0 0 0 0 0 0 0 0 0 0
0 0 0 0 0 0 0 0 0 0 0 0 0 1 1 1 1 1 2 2 3 0 0 0 0 0 0 0 0 0 0 0 0 0 0 0 0 0 0 0 0 0 0
0 0 0 0 0 0 0 0 0 0 0 0 0 0 0 0 0 0 0 0 0 0 0 0 0 0 0 0 0 0 0 0 0 0 0 0 0 0 0 0 0 0 0
0 0 0 0 0 0 0 0 0 0 0 0 0 0 0 0 0 0 0 0 0 0 0 0 0 0 0 0 0 0 0 0 0 0 0 0 0 0 0 0 0 0 0
0 0 0 0 0 0 0 0 0 0 0 0 0 0 0 0 0 0 0 0 0 0 0 0 0 0 0 0 0 0 0 0 0 0 0 0 0 0 0 0 0 0 0
0 0 0 0 0 0 0 0 0 0 0 0 0 0 0 0 0 0 0 0 0 0 0 0 0 0 0 0 0 0 0 0 0 0 0 0 0 0 0 0 0 0 0
0 0 0 0 0 0 0 0 0 0 0 0 0 0 0 0 0 0 0 0 0 0 0 0 0 0 0 0 0 0 0 0 0 0 0 0 0 0 0 0 0 0 0
0 0 0 0 0 0 0 0 0 0 0 0 0 0 0 0 0 0 0 0 0 0 0 0 0 0 0 0 0 0 0 0 0 0 0 0 0 0 0 0 0 0 0
0 0 0 0 0 0 0 0 0 0 0 0 0 0 0 0 0 0 0 0 0 0 0 0 0 0 0 0 0 0 0 0 0 0 0 0 0 0 0 0 0 0 0
0 0 0 0 0 0 0 0 0 0 0 0 0 0 0 0 0 0 0 0 0 0 0 0 0 0 0 0 0 0 0 0 0 0 0 0 0 0 0 0 0 0 0
0 0 0 0 0 0 0 0 0 0 0 0 0 0 0 0 0 0 0 0 0 0 0 0 0 0 0 0 0 0 0 0 0 0 0 0 0 0 0 0 0 0 0
CIN
-0 -0 -141 -80 -105 -141 -122 -154 -182 -212 -177 -152 -102 -55 -61 -57 -54 -53 -53 -63 -100 -81 -74 -115 -174 -38 -1 -0 -0 -0 -0 -0 -0 -0 -0 -0 -0 -0 -0 -0 -0 -0 -0
-0 -0 -137 -92 -112 -111 -120 -173 -187 -167 -194 -131 -80 -69 -63 -88 -115 -138 -134 -107 -82 -91 -140 -120 -110 -14 -18 -0 -0 -0 -0 -0 -0 -0 -0 -0 -7 -0 -180 -99 -0 -0 -0
-0 -0 -0 -0 -105 -96 -134 -182 -170 -154 -124 -95 -79 -77 -73 -104 -151 -166 -5 -8 -4 -125 -124 -108 -88 -0 -2 -0 -0 -0 -0 -0 -0 -0 -0 -0 -128 -148 -192 -22 -0 -0 -0
-0 -0 -0 -0 -0 -147 -147 -155 -130 -49 -51 -49 -0 -0 -0 -0 -0 -0 -0 -0 -0 -0 -0 -0 -1 -0 -1 -0 -0 -0 -0 -0 -0 -0 -0 -0 -0 -51 -112 -136 -0 -0 -0
-0 -0 -0 -0 -0 -0 -0 -0 -0 -12 -0 -0 -0 -1 -0 -0 -0 -0 -0 -0 -0 -0 -0 -0 -0 -0 -23 -6 -2 -0 -0 -0 -0 -0 -0 -6 -0 -0 -58 -94 -29 -0 -0
-0 -0 -0 -0 -0 -0 -0 -0 -0 -0 -0 -0 -0 -0 -0 -0 -0 -0 -0 -0 -0 -0 -0 -0 -1 -8 -0 -0 -69 -0 -0 -0 -0 -0 -0 -0 -0 -0 -84 -0 -0 -0 -0
-0 -0 -0 -0 -0 -0 -0 -0 -0 -0 -0 -0 -0 -0 -0 -0 -0 -0 -0 -0 -0 -0 -0 -0 -0 -0 -42 -0 -0 -0 -0 -0 -0 -0 -0 -0 -0 -0 -0 -66 -0 -0 -0
-0 -0 -0 -0 -0 -0 -0 -0 -0 -0 -0 -0 -0 -0 -0 -0 -0 -0 -0 -0 -0 -0 -0 -0 -0 -0 -0 -0 -0 -0 -0 -0 -0 -0 -0 -0 -0 -0 -0 -0 -0 -0 -0
-0 -0 -0 -0 -0 -0 -0 -0 -0 -0 -0 -0 -0 -0 -0 -0 -0 -0 -0 -0 -0 -0 -0 -0 -0 -0 -0 -0 -0 -0 -0 -0 -0 -0 -0 -0 -0 -0 -0 -0 -0 -0 -0
-0 -0 -0 -0 -0 -0 -0 -0 -0 -0 -0 -0 -0 -0 -0 -0 -0 -0 -0 -0 -0 -0 -0 -0 -0 -0 -0 -0 -0 -0 -0 -0 -0 -0 -0 -0 -0 -0 -0 -0 -0 -0 -0
-0 -0 -0 -0 -0 -0 -0 -0 -0 -0 -0 -0 -0 -0 -0 -0 -0 -0 -0 -0 -0 -0 -0 -0 -0 -0 -0 -0 -0 -0 -0 -0 -0 -0 -0 -0 -0 -0 -0 -0 -0 -0 -0
-0 -0 -0 -0 -0 -0 -0 -0 -0 -0 -0 -0 -0 -0 -0 -0 -0 -0 -0 -0 -0 -0 -0 -0 -0 -0 -0 -0 -0 -0 -0 -0 -0 -0 -0 -0 -0 -0 -0 -0 -0 -0 -0
-0 -0 -0 -0 -0 -0 -0 -0 -0 -0 -0 -0 -0 -0 -0 -0 -0 -0 -0 -0 -0 -0 -0 -0 -0 -0 -0 -0 -0 -0 -0 -0 -0 -0 -0 -0 -0 -0 -0 -0 -0 -0 -0
-0 -0 -0 -0 -0 -0 -0 -0 -0 -0 -0 -0 -0 -0 -0 -0 -0 -0 -0 -0 -0 -0 -0 -0 -0 -0 -0 -0 -0 -0 -0 -0 -0 -0 -0 -0 -0 -0 -0 -0 -0 -0 -0
-0 -0 -0 -0 -0 -0 -0 -0 -0 -0 -0 -0 -0 -0 -0 -0 -0 -0 -0 -0 -0 -0 -0 -0 -0 -0 -0 -0 -0 -0 -0 -0 -0 -0 -0 -0 -0 -0 -0 -0 -0 -0 -0
-0 -0 -0 -0 -0 -0 -0 -0 -0 -0 -0 -1 -0 -0 -0 -0 -0 -0 -0 -0 -0 -0 -0 -0 -0 -0 -0 -0 -0 -0 -0 -0 -0 -0 -0 -0 -0 -0 -0 -0 -0 -0 -0
-0 -0 -0 -0 -0 -0 -0 -0 -0 -0 -0 -0 -0 -0 -0 -0 -0 -0 -0 -0 -0 -0 -0 -0 -0 -0 -0 -0 -0 -0 -0 -0 -0 -0 -0 -0 -0 -0 -0 -0 -0 -0 -0
-0 -0 -0 -0 -0 -0 -0 -0 -0 -0 -0 -0 -0 -0 -0 -0 -0 -0 -0 -0 -0 -0 -0 -0 -0 -0 -0 -0 -0 -0 -0 -0 -0 -0 -0 -0 -0 -0 -0 -0 -0 -0 -0
-0 -0 -0 -0 -0 -0 -0 -0 -0 -0 -0 -0 -0 -0 -0 -0 -0 -0 -0 -0 -0 -0 -0 -0 -0 -0 -0 -0 -0 -0 -0 -0 -0 -0 -0 -0 -0 -0 -0 -0 -0 -0 -0
-0 -0 -0 -0 -0 -0 -0 -0 -0 -0 -0 -0 -0 -0 -0 -0 -0 -0 -0 -0 -0 -0 -0 -0 -0 -0 -0 -0 -0 -0 -0 -0 -0 -0 -0 -0 -0 -0 -0 -0 -0 -0 -0
-0 -0 -0 -0 -0 -0 -0 -0 -0 -0 -0 -0 -0 -0 -0 -0 -0 -0 -0 -0 -0 -0 -0 -0 -0 -0 -0 -0 -0 -0 -0 -0 -0 -0 -0 -0 -0 -0 -0 -0 -0 -0 -0
-0 -0 -0 -0 -0 -0 -0 -0 -0 -0 -0 -0 -0 -0 -0 -0 -0 -0 -0 -0 -0 -0 -0 -0 -0 -0 -0 -0 -0 -0 -0 -0 -0 -0 -0 -0 -0 -0 -0 -0 -0 -0 -0
-0 -0 -0 -0 -0 -0 -0 -0 -0 -0 -0 -0 -0 -0 -0 -0 -0 -0 -0 -0 -0 -0 -0 -0 -0 -0 -0 -0 -0 -0 -0 -0 -0 -0 -0 -0 -0 -0 -0 -0 -0 -0 -0
-0 -0 -0 -0 -0 -0 -0 -0 -0 -0 -0 -0 -0 -0 -0 -0 -0 -0 -0 -0 -0 -0 -0 -0 -0 -0 -0 -0 -0 -0 -0 -0 -0 -0 -0 -0 -0 -0 -0 -0 -0 -0 -0
-0 -0 -0 -0 -0 -0 -0 -0 -0 -0 -0 -0 -0 -0 -0 -0 -0 -0 -0 -0 -0 -0 -0 -0 -0 -0 -0 -0 -0 -0 -0 -0 -0 -0 -0 -0 -0 -0 -0 -0 -0 -0 -0
-0 -0 -0 -0 -0 -0 -0 -0 -0 -0 -0 -0 -0 -0 -0 -0 -0 -0 -0 -0 -0 -0 -0 -0 -0 -0 -0 -0 -0 -0 -0 -0 -0 -0 -0 -0 -0 -0 -0 -0 -0 -0 -0
Wind_Speed
25 27 28 23 23 23 22 20 18 19 19 19 18 17 14 15 14 13 17 20 20 23 26 28 26 25 26 23 24 25 23 28 30 28 27 28 23 20 18 21 21 22 23
23 24 24 23 22 21 20 19 18 19 17 18 17 15 14 14 15 16 20 19 22 25 26 25 25 28 26 24 24 26 24 28 32 29 25 23 24 18 16 19 21 23 23
17 16 15 17 19 19 19 16 16 16 16 16 15 14 13 15 18 22 24 29 31 28 25 24 25 27 30 25 29 27 26 30 33 32 28 25 24 20 18 19 19 20 20
16 15 14 16 18 16 15 12 12 11 13 14 13 16 17 19 21 22 26 29 30 31 31 32 30 31 30 29 33 30 27 30 31 31 29 27 25 23 18 17 19 18 19
19 18 16 16 16 12 13 11 14 14 14 14 15 15 16 17 19 23 25 27 30 33 32 31 32 33 32 30 33 29 26 29 31 30 32 29 28 25 22 18 18 16 19
19 16 14 14 15 12 13 11 11 13 15 15 15 15 16 18 27 26 25 26 28 31 33 29 25 24 23 24 24 27 29 31 30 28 30 30 28 24 18 17 19 20 22
16 15 14 16 14 11 11 13 13 14 15 16 18 18 20 24 28 26 25 25 26 29 31 31 30 29 23 25 25 23 26 29 28 27 29 27 26 23 20 20 21 24 24
19 19 19 17 16 16 14 14 15 15 16 18 20 21 23 26 29 27 24 23 24 26 29 29 27 26 27 21 17 21 22 23 25 24 26 24 24 23 22 24 24 23 23
24 23 23 22 20 19 15 17 16 16 17 19 21 22 24 27 29 26 24 22 22 24 25 26 25 20 18 18 14 15 15 16 12 12 12 17 18 19 21 21 24 26 31
27 26 25 23 22 21 21 20 19 18 18 18 21 24 24 25 28 25 22 21 21 22 23 24 24 20 18 14 10 10 11 14 13 13 15 17 20 23 24 26 27 26 24
29 29 28 27 25 23 22 22 21 21 21 21 21 23 24 25 27 27 24 22 21 21 22 22 22 20 17 14 13 12 10 8 10 12 16 17 17 19 20 19 18 18 21
30 31 31 30 29 27 26 24 23 22 22 23 24 22 24 25 27 26 25 22 21 20 21 21 20 19 17 15 13 13 10 13 11 12 13 16 15 15 13 12 11 12 12
30 30 31 31 31 30 29 28 27 26 25 24 24 24 25 27 25 26 23 22 21 20 19 19 19 18 16 16 15 13 12 12 13 12 11 12 11 11 10 11 11 11 12
31 31 31 31 31 31 31 30 30 28 27 27 27 26 25 26 27 25 25 22 22 20 20 20 19 18 17 16 15 15 13 12 11 12 11 10 11 11 11 12 12 12 13
31 31 32 32 31 31 30 31 30 31 30 29 28 27 27 27 28 26 26 24 22 20 18 19 18 18 17 16 16 16 15 14 13 13 12 11 12 12 13 14 14 12 14
32 33 33 32 32 31 30 29 30 31 31 31 30 29 28 27 27 26 25 24 23 21 19 19 19 18 18 18 17 17 16 16 15 14 14 15 16 16 16 16 15 16 17
33 33 33 34 33 33 32 32 32 31 31 31 31 31 30 29 28 27 25 24 23 21 21 21 20 20 20 19 19 18 18 19 17 17 17 18 17 17 18 18 18 18 19
33 34 34 34 34 34 33 33 32 33 33 33 32 32 31 30 29 28 26 24 24 24 22 22 22 22 21 21 20 20 20 20 19 19 19 19 19 19 19 19 19 19 19
34 34 34 34 34 34 34 34 33 33 33 33 33 32 32 30 29 28 27 25 24 24 23 22 22 21 21 20 20 20 19 19 19 19 19 19 19 18 19 19 19 20 20
34 35 35 34 35 35 35 35 34 34 34 34 34 34 33 31 30 29 28 26 25 24 23 23 22 22 22 21 21 20 20 20 19 19 19 18 18 18 19 19 20 21 21
34 35 35 35 35 35 34 35 34 34 34 34 33 33 32 31 30 29 28 27 26 25 25 24 23 23 22 22 21 21 20 20 20 20 20 20 20 20 20 20 21 21 22
35 35 35 35 35 35 35 35 34 34 34 34 33 32 31 30 30 29 28 27 26 26 25 24 23 23 23 22 22 22 22 22 22 21 21 22 21 21 21 21 22 22 23
35 36 36 36 36 36 36 35 35 35 34 34 33 32 31 30 29 29 28 27 26 26 25 24 23 23 23 22 22 22 22 23 23 22 22 22 22 22 21 22 22 23 23
36 37 37 37 37 37 37 36 35 34 34 34 33 32 31 30 29 28 27 27 26 25 25 24 23 22 22 22 22 22 22 22 22 22 22 21 21 21 21 22 22 22 23
37 37 38 37 37 39 38 37 36 35 34 33 32 31 30 29 29 28 27 26 25 24 24 23 23 22 22 22 22 22 22 22 21 21 21 21 21 22 22 22 23 23 23
36 37 36 36 37 37 36 35 33 32 32 31 30 30 29 29 28 27 27 25 25 24 24 23 23 22 21 21 21 21 21 21 21 22 21 21 22 22 22 23 23 23 23
Wind_Direction
269 259 250 252 249 248 253 255 256 258 262 270 275 271 267 268 271 271 278 284 284 286 285 284 281 280 277 269 265 261 258 262 259 259 253 255 253 246 245 246 253 257 262
273 266 257 252 251 251 253 255 257 263 269 273 273 271 271 275 281 284 288 289 288 288 287 285 279 281 273 262 260 260 251 255 254 255 254 255 256 244 245 244 252 259 262
291 284 272 264 255 254 257 263 267 269 269 271 274 275 279 284 288 291 296 295 294 295 289 283 278 274 276 264 261 257 252 253 251 254 255 258 260 256 257 260 256 257 263
306 301 293 283 274 265 271 276 276 274 277 278 281 286 287 289 292 299 299 298 300 300 296 290 284 276 272 260 259 254 251 249 248 249 251 252 257 261 259 248 252 254 256
315 308 297 299 287 280 287 285 284 289 288 289 288 292 294 297 305 302 304 308 310 308 302 296 286 279 271 261 257 250 245 248 249 245 249 251 256 252 244 249 248 245 259
331 327 309 307 283 287 284 309 302 303 301 299 300 299 299 302 298 302 307 314 319 319 313 312 295 284 274 244 238 244 246 246 244 245 241 243 246 245 242 231 243 247 262
328 333 328 322 316 310 312 315 315 311 308 304 302 303 304 304 304 309 311 315 322 324 322 321 293 286 281 274 262 253 254 249 249 242 237 240 243 239 235 240 246 257 263
339 336 331 332 326 342 337 331 326 323 317 309 304 312 307 309 308 309 315 317 323 326 330 326 309 295 288 277 265 262 261 262 255 249 247 248 256 246 245 250 258 260 272
355 349 350 347 342 345 346 342 339 331 326 322 319 315 315 316 316 313 316 319 323 328 337 333 323 317 302 292 279 266 259 258 265 263 249 263 264 262 259 255 261 261 274
359 360 357 353 350 345 348 345 341 340 339 331 326 324 327 327 327 327 323 323 322 323 332 334 332 321 320 320 304 273 262 262 263 263 274 273 279 279 274 274 270 261 264
6 8 5 2 357 350 350 349 347 340 339 335 335 332 330 334 334 334 332 324 325 323 329 333 337 341 333 325 314 304 294 293 289 282 285 286 290 292 283 285 285 273 269
9 11 11 10 10 6 4 358 355 353 349 338 339 337 344 336 338 338 339 333 329 326 325 329 336 343 345 343 334 331 319 303 300 303 286 298 291 298 305 308 308 309 311
8 8 10 12 10 10 9 5 3 0 353 348 344 339 340 348 345 343 343 341 336 334 335 334 336 337 343 342 343 340 336 323 300 305 311 309 311 309 309 313 319 332 330
9 7 6 7 8 10 10 8 5 359 356 352 350 346 340 343 345 338 342 340 343 338 332 332 334 334 338 337 339 339 339 334 331 322 322 323 324 323 327 327 326 329 327
6 5 4 4 4 5 6 6 4 6 3 357 352 348 343 341 344 346 344 341 341 337 337 338 334 333 331 337 335 334 331 331 330 325 323 320 319 321 318 317 321 324 317
5 2 1 1 0 0 359 358 3 4 2 0 360 356 351 351 349 349 348 346 343 339 332 331 333 331 328 329 326 327 333 330 329 325 321 317 312 309 309 315 316 312 310
6 5 4 2 0 358 356 354 349 350 355 354 352 351 349 345 344 342 342 345 344 340 331 330 328 325 323 325 323 322 320 320 326 321 316 315 314 312 310 310 311 312 311
5 4 3 1 0 359 357 354 352 348 344 342 344 344 343 343 342 340 337 336 332 332 328 323 319 319 319 320 321 322 322 321 321 319 317 315 313 312 311 312 313 312 313
360 359 358 357 357 356 355 353 350 348 345 343 341 341 340 340 340 340 339 335 330 329 328 327 326 326 325 325 325 325 324 323 322 322 321 318 317 316 315 316 316 316 316
357 356 355 354 352 351 351 349 347 346 344 341 339 337 336 336 334 333 333 332 329 327 325 324 324 324 323 322 321 321 322 321 321 321 322 322 321 321 319 318 318 317 317
356 355 354 352 351 349 348 346 344 343 341 339 338 338 338 335 332 331 329 327 325 323 322 321 320 320 320 319 319 319 319 318 318 318 318 318 318 316 317 318 317 317 317
352 350 349 347 346 345 344 342 340 339 337 336 335 336 336 335 332 330 328 326 324 322 320 319 318 318 318 316 316 316 315 313 313 312 313 313 313 314 314 315 315 316 315
349 347 345 344 342 341 339 338 336 335 333 332 331 331 331 330 329 328 326 325 323 322 321 319 316 314 316 317 317 316 313 312 312 312 312 312 313 314 314 314 315 315 316
347 345 343 341 340 338 336 334 333 332 330 328 327 326 325 325 325 325 324 323 322 320 320 319 317 316 315 316 317 318 318 316 315 313 313 312 312 314 314 315 316 316 316
346 344 342 341 339 336 334 332 330 329 327 326 325 324 322 320 320 322 323 322 322 320 319 319 318 316 315 316 317 318 319 319 318 317 315 314 313 314 314 315 315 316 316
345 344 342 341 337 336 335 335 333 331 330 328 326 325 323 321 320 319 319 321 321 322 320 319 318 317 317 317 319 320 321 322 321 319 317 315 314 314 315 314 314 314 315